This demonstration page uses our WeatherBlox Daily Observations layout. Learn more.

Left ArrowRight Arrow

40.97296, -117.73568

Hourly Observations for August 16, 2015

Temp ( °F °C ) Dew Point ( °F °C ) Humidity (%) Winds ( mph kmh ) Pressure ( in mb ) Visibility ( mi km ) Precip ( " mm )
12:56 am 00:56 Clear 54 12.2 28 -2.2 37 37 E 9 15 30.02 1017 10 16 0.00 0.00
1:56 am 01:56 Clear 52 11.1 28 -2.2 40 40 VRB 3 6 30.01 1016 10 16 0.00 0.00
2:56 am 02:56 Clear 49 9.4 25 -3.9 39 39 Calm 30.02 1017 10 16 0.00 0.00
3:56 am 03:56 Clear 46 7.8 27 -2.8 47 47 ESE 3 6 30.03 1017 10 16 0.00 0.00
4:56 am 04:56 Clear 45 7.2 26 -3.3 48 48 Calm 30.04 1017 10 16 0.00 0.00
5:56 am 05:56 Clear 44 6.7 25 -3.9 47 47 Calm 30.06 1018 10 16 0.00 0.00
6:56 am 06:56 Sunny 45 7.2 25 -3.9 46 46 Calm 30.07 1018 10 16 0.00 0.00
7:56 am 07:56 Sunny 62 16.7 29 -1.7 29 29 N 3 6 30.06 1018 10 16 0.00 0.00
8:56 am 08:56 Sunny 68 20 33 0.6 27 27 NNE 6 9 30.06 1018 8 13 0.00 0.00
9:56 am 09:56 Sunny 76 24.4 34 1.1 22 22 N 6 9 30.04 1017 7 11 0.00 0.00
10:56 am 10:56 Sunny 81 27.2 32 0 17 17 undefined N/A 30.04 1017 8 13 0.00 0.00
11:56 am 11:56 Sunny 87 30.6 27 -2.8 11 11 Calm 30.01 1016 10 16 0.00 0.00
12:56 pm 12:56 Sunny 87 30.6 24 -4.4 10 10 Calm 29.99 1016 10 16 0.00 0.00
1:56 pm 13:56 Sunny 90 32.2 24 -4.4 9 9 Calm 29.97 1015 10 16 0.00 0.00
2:56 pm 14:56 Sunny 93 33.9 23 -5 8 8 undefined N/A 29.94 1014 10 16 0.00 0.00
3:56 pm 15:56 Sunny 92 33.3 21 -6.1 7 7 WNW 8 13 29.93 1014 10 16 0.00 0.00
4:56 pm 16:56 Sunny 91 32.8 20 -6.7 7 7 WNW 8 13 29.92 1013 10 16 0.00 0.00
5:56 pm 17:56 Sunny with Nearby Thunderstorms 90 32.2 20 -6.7 8 8 WNW 8 13 29.92 1013 10 16 0.00 0.00
6:17 pm 18:17 Sunny with Nearby Thunderstorms 90 32.2 20 -6.7 8 8 W 8 13 29.65 1004 10 16 0.00 0.00
6:43 pm 18:43 Sunny 89 31.7 20 -6.7 8 8 WNW 8 13 29.65 1004 10 16 0.00 0.00
6:56 pm 18:56 Sunny 88 31.1 20 -6.7 8 8 NW 7 11 29.91 1013 10 16 0.00 0.00
7:43 pm 19:43 Sunny with Nearby Thunderstorms 80 26.7 16 -8.9 9 9 WNW 7 11 29.74 1007 10 16 0.00 0.00
7:56 pm 19:56 Clear with Nearby Thunderstorms 77 25 16 -8.9 10 10 WNW 7 11 29.90 1013 10 16 0.00 0.00
8:05 pm 20:05 Clear 78 25.6 16 -8.9 9 9 WNW 7 11 29.74 1007 10 16 0.00 0.00
8:56 pm 20:56 Clear 69 20.6 19 -7.2 15 15 SE 5 7 29.91 1013 10 16 0.00 0.00
9:56 pm 21:56 Clear 65 18.3 19 -7.2 17 17 Calm 29.91 1013 10 16 0.00 0.00
10:56 pm 22:56 Clear 58 14.4 17 -8.3 20 20 SSE 8 13 29.91 1013 10 16 0.00 0.00
11:56 pm 23:56 Clear 55 12.8 18 -7.8 23 23 S 7 11 29.93 1013 10 16 0.00 0.00

Powered by AerisWeather